Weather History for KSRB - July, 2013

Change the Weather History Date:

Wednesday, July 17, 2013

  Actual Average (KCSV) Record (KCSV)
Temperature  
Mean Temperature 78 °F 75 °F  
Max Temperature 91 °F 84 °F 97 °F (1980)
Min Temperature 66 °F 66 °F 53 °F (1970)
Degree Days  
Heating Degree Days 0    
Month to date heating degree days  
Since 1 June heating degree days  
Since 1 July heating degree days  
Cooling Degree Days 14    
Month to date cooling degree days  
Year to date cooling degree days  
Since 1 June cooling degree days  
Growing Degree Days 28 (Base 50)    
Moisture  
Dew Point 71 °F    
Average Humidity 76    
Maximum Humidity 100    
Minimum Humidity 49    
Precipitation  
Precipitation 0.00 in 0.18 in 1.52 in (1999)
Month to date precipitation 2.83  
Year to date precipitation 31.81  
Sea Level Pressure  
Sea Level Pressure 30.28 in    
Wind  
Wind Speed 1 mph (NE)    
Max Wind Speed 8 mph    
Max Gust Speed -    
Visibility 10 miles    
Events      
T = Trace of Precipitation, MM = Missing Value Source: NWS Daily Summary

Daily Weather History Graph

Daily Weather History Graph

Search for Another Location

Airport or City:

Trip Planner

Search our weather history database for the weather conditions in past years. The results will help you decide how hot, cold, wet, or windy it might be!

Date:

Astronomy

Jul. 17, 2013 Rise Set
Actual Time 5:38 AM CDT 7:57 PM CDT
Civil Twilight 5:09 AM CDT 8:27 PM CDT
Nautical Twilight 4:32 AM CDT 9:03 PM CDT
Astronomical Twilight 3:53 AM CDT 9:42 PM CDT
Moon 2:48 PM CDT (7/17) 12:41 AM CDT (7/17)
Length of Visible Light 15h 18m
Length of Day
14h 19m
Waxing Gibbous, 67% of the Moon is Illuminated
Jul 17
Waxing Gibbous
Jul 22
Full
Jul 29
Last Quarter
Aug 6
New
Aug 14
First Quarter

Hourly Weather History & Observations

Time (CDT) Temp. Heat Index Dew Point Humidity Pressure Visibility Wind Dir Wind Speed Gust Speed Precip Events Conditions
12:35 AM 71.6 °F - 69.8 °F 94% 30.31 in 10.0 mi Calm Calm - N/A   Clear
12:55 AM 69.8 °F - 69.8 °F 100% 30.31 in 10.0 mi Calm Calm - N/A   Clear
1:15 AM 69.8 °F - 69.8 °F 100% 30.31 in 9.0 mi Calm Calm - N/A   Clear
1:35 AM 69.8 °F - 69.8 °F 100% 30.31 in 10.0 mi Calm Calm - N/A   Clear
1:55 AM 69.8 °F - 69.8 °F 100% 30.30 in 10.0 mi Calm Calm - N/A   Clear
2:15 AM 69.8 °F - 68.0 °F 94% 30.30 in 10.0 mi Calm Calm - N/A   Clear
2:35 AM 69.8 °F - 68.0 °F 94% 30.30 in 10.0 mi Calm Calm - N/A   Clear
2:55 AM 69.8 °F - 68.0 °F 94% 30.30 in 10.0 mi Calm Calm - N/A   Clear
3:15 AM 69.8 °F - 68.0 °F 94% 30.30 in 8.0 mi Calm Calm - N/A   Clear
3:35 AM 68.0 °F - 66.2 °F 94% 30.30 in 10.0 mi Calm Calm - N/A   Clear
3:55 AM 68.0 °F - 66.2 °F 94% 30.30 in 8.0 mi Calm Calm - N/A   Clear
4:15 AM 68.0 °F - 66.2 °F 94% 30.30 in 8.0 mi Calm Calm - N/A   Clear
4:35 AM 68.0 °F - 66.2 °F 94% 30.30 in 8.0 mi Calm Calm - N/A   Clear
4:55 AM 68.0 °F - 66.2 °F 94% 30.31 in 10.0 mi Calm Calm - N/A   Clear
5:15 AM 68.0 °F - 66.2 °F 94% 30.31 in 10.0 mi Calm Calm - N/A   Clear
5:35 AM 66.2 °F - 66.2 °F 100% 30.32 in 9.0 mi Calm Calm - N/A   Clear
5:55 AM 66.2 °F - 66.2 °F 100% 30.32 in 9.0 mi Calm Calm - N/A   Clear
6:15 AM 69.8 °F - 66.2 °F 88% 30.32 in 10.0 mi Calm Calm - N/A   Clear
6:35 AM 69.8 °F - 68.0 °F 94% 30.32 in 9.0 mi Calm Calm - N/A   Clear
6:55 AM 71.6 °F - 69.8 °F 94% 30.33 in 10.0 mi Calm Calm - N/A   Clear
7:15 AM 73.4 °F - 69.8 °F 88% 30.33 in 10.0 mi Calm Calm - N/A   Clear
7:35 AM 75.2 °F - 69.8 °F 83% 30.34 in 10.0 mi Calm Calm - N/A   Clear
7:55 AM 77.0 °F - 71.6 °F 83% 30.34 in 10.0 mi Calm Calm - N/A   Clear
8:15 AM 77.0 °F - 71.6 °F 83% 30.34 in 10.0 mi Calm Calm - N/A   Clear
8:35 AM 78.8 °F - 71.6 °F 78% 30.33 in 10.0 mi Calm Calm - N/A   Clear
8:55 AM 80.6 °F 84.6 °F 71.6 °F 74% 30.33 in 10.0 mi Calm Calm - N/A   Clear
9:15 AM 82.4 °F 87.2 °F 71.6 °F 70% 30.33 in 10.0 mi Calm Calm - N/A   Clear
9:35 AM 84.2 °F 90.9 °F 73.4 °F 70% 30.33 in 10.0 mi Calm Calm - N/A   Clear
9:55 AM 84.2 °F 89.6 °F 71.6 °F 66% 30.33 in 10.0 mi Calm Calm - N/A   Clear
10:15 AM 87.8 °F 95.6 °F 73.4 °F 62% 30.32 in 10.0 mi Calm Calm - N/A   Clear
10:35 AM 87.8 °F 95.6 °F 73.4 °F 62% 30.32 in 10.0 mi Variable 4.6 mph - N/A   Partly Cloudy
10:55 AM 87.8 °F 93.8 °F 71.6 °F 58% 30.32 in 10.0 mi NNE 4.6 mph - N/A   Partly Cloudy
11:15 AM 89.6 °F 98.2 °F 73.4 °F 59% 30.32 in 10.0 mi Variable 3.5 mph - N/A   Mostly Cloudy
11:35 AM 87.8 °F 95.6 °F 73.4 °F 62% 30.32 in 10.0 mi NNE 4.6 mph - N/A   Scattered Clouds
11:55 AM 89.6 °F 98.2 °F 73.4 °F 59% 30.32 in 10.0 mi ENE 6.9 mph - N/A   Clear
12:15 PM 89.6 °F 96.2 °F 71.6 °F 55% 30.31 in 10.0 mi North 4.6 mph - N/A   Partly Cloudy
12:35 PM 89.6 °F 96.2 °F 71.6 °F 55% 30.30 in 10.0 mi ENE 4.6 mph - N/A   Partly Cloudy
12:55 PM 87.8 °F 92.6 °F 69.8 °F 55% 30.29 in 10.0 mi North 3.5 mph - N/A   Scattered Clouds
1:15 PM 89.6 °F 94.7 °F 69.8 °F 52% 30.29 in 10.0 mi Variable 4.6 mph - N/A   Partly Cloudy
1:35 PM 91.4 °F 98.4 °F 71.6 °F 52% 30.28 in 10.0 mi Variable 6.9 mph - N/A   Partly Cloudy
1:55 PM 91.4 °F 96.8 °F 69.8 °F 49% 30.27 in 10.0 mi NE 5.8 mph - N/A   Scattered Clouds
2:15 PM 89.6 °F 94.7 °F 69.8 °F 52% 30.26 in 10.0 mi ENE 5.8 mph - N/A   Partly Cloudy
2:35 PM 91.4 °F 98.4 °F 71.6 °F 52% 30.25 in 10.0 mi North 4.6 mph - N/A   Clear
2:55 PM 89.6 °F 96.2 °F 71.6 °F 55% 30.24 in 10.0 mi North 3.5 mph - N/A   Partly Cloudy
3:15 PM 91.4 °F 98.4 °F 71.6 °F 52% 30.23 in 10.0 mi North 8.1 mph - N/A   Partly Cloudy
3:35 PM 89.6 °F 98.2 °F 73.4 °F 59% 30.23 in 10.0 mi Variable 5.8 mph - N/A   Partly Cloudy
3:55 PM 87.8 °F 93.8 °F 71.6 °F 58% 30.23 in 10.0 mi Variable 4.6 mph - N/A   Partly Cloudy
4:15 PM 91.4 °F 100.1 °F 73.4 °F 55% 30.23 in 9.0 mi North 8.1 mph - N/A   Scattered Clouds
4:35 PM 80.6 °F 85.4 °F 73.4 °F 79% 30.22 in 10.0 mi Calm Calm - N/A   Partly Cloudy
4:55 PM 82.4 °F 88.2 °F 73.4 °F 74% 30.21 in 10.0 mi North 3.5 mph - N/A   Clear
5:15 PM 86.0 °F 93.4 °F 73.4 °F 66% 30.21 in 10.0 mi NNW 3.5 mph - N/A   Clear
5:35 PM 86.0 °F 93.4 °F 73.4 °F 66% 30.21 in 10.0 mi North 3.5 mph - N/A   Partly Cloudy
5:55 PM 87.8 °F 95.6 °F 73.4 °F 62% 30.22 in 10.0 mi Variable 4.6 mph - N/A   Scattered Clouds
6:15 PM 87.8 °F 95.6 °F 73.4 °F 62% 30.22 in 10.0 mi NNW 3.5 mph - N/A   Partly Cloudy
6:35 PM 87.8 °F 95.6 °F 73.4 °F 62% 30.22 in 10.0 mi Calm Calm - N/A   Clear
6:55 PM 86.0 °F 93.4 °F 73.4 °F 66% 30.22 in 10.0 mi NNW 3.5 mph - N/A   Clear
7:15 PM 86.0 °F 93.4 °F 73.4 °F 66% 30.22 in 10.0 mi Calm Calm - N/A   Clear
7:35 PM 82.4 °F 89.5 °F 75.2 °F 79% 30.22 in 10.0 mi Calm Calm - N/A   Clear
7:55 PM 80.6 °F 86.2 °F 75.2 °F 84% 30.22 in 10.0 mi Calm Calm - N/A   Clear
8:15 PM 78.8 °F - 75.2 °F 89% 30.23 in 10.0 mi Calm Calm - N/A   Clear
8:35 PM 78.8 °F - 75.2 °F 89% 30.23 in 10.0 mi Calm Calm - N/A   Clear
8:55 PM 78.8 °F - 75.2 °F 89% 30.23 in 10.0 mi Calm Calm - N/A   Clear
9:15 PM 78.8 °F - 73.4 °F 83% 30.24 in 10.0 mi Calm Calm - N/A   Partly Cloudy
9:35 PM 78.8 °F - 75.2 °F 89% 30.25 in 10.0 mi ENE 4.6 mph - N/A   Clear
9:55 PM 78.8 °F - 73.4 °F 83% 30.26 in 10.0 mi SE 5.8 mph - N/A   Partly Cloudy
10:15 PM 78.8 °F - 71.6 °F 78% 30.25 in 8.0 mi Variable 6.9 mph - N/A   Partly Cloudy
10:35 PM 78.8 °F - 68.0 °F 69% 30.25 in 10.0 mi SSE 4.6 mph - N/A   Clear
10:55 PM 77.0 °F - 66.2 °F 69% 30.23 in 10.0 mi Calm Calm - N/A   Clear
11:15 PM 77.0 °F - 66.2 °F 69% 30.23 in 10.0 mi ESE 6.9 mph - N/A   Clear
11:35 PM 77.0 °F - 66.2 °F 69% 30.24 in 3.0 mi ESE 6.9 mph - N/A   Clear
11:55 PM 77.0 °F - 66.2 °F 69% 30.23 in 9.0 mi SSE 4.6 mph - N/A   Clear